Location: *
(45.9500°N, 9.0833°E)
Time: 22:42:16
(UTC+00:00)

Vanguard 2 Rocket - Pass Details

Date: 17 June 2021
Orbit: 555 x 3325 km, 32.9° (Epoch: 02 August)

Event Time Altitude Azimuth Distance (km) Brightness Sun altitude
Rises 17:20:59 0° 209° (SSW) 7,220 11.7 17.2°
Reaches altitude 10° 17:26:56 10° 199° (SSW) 6,274 11.2 16.2°
Maximum altitude 17:42:11 29° 150° (SSE) 4,561 10.2 13.7°
Drops below altitude 10° 17:54:37 10° 99° (E) 5,126 10.2 11.7°
Sets 17:58:45 0° 89° (E) 5,758 10.4 11.0°
